Location: Asheville, NC
(35.6000°N, 82.5500°W)
Time: 06:34:58
(UTC-05:00)

Vanguard 2 Rocket - Pass Details

Date: 10 February 2018
Orbit: 555 x 3327 km, 32.9° (Epoch: 24 February)

Event Time Altitude Azimuth Distance (km) Brightness Sun altitude
Rises 07:42:03 0° 284° (WNW) 7,252 10.8 3.0°
Reaches altitude 10° 07:47:26 10° 280° (W) 6,063 10.5 4.0°
Maximum altitude 08:04:14 49° 214° (SSW) 2,860 9.5 7.2°
Drops below altitude 10° 08:14:42 10° 143° (SE) 3,887 11.4 9.2°
Sets 08:17:22 0° 137° (SE) 4,560 12.0 9.6°
